Temp
5 6 6 6 6 6 6 7 7 7 7 7 7 8 8 8 8 8 8 8 8 7 7 6 6 6 6 5 6 6 8 9 9 9 8 7 7 7 7 6 5 5 5 5 6
5 5 5 6 6 6 6 6 6 7 7 7 7 7 7 8 8 8 8 7 7 7 7 6 5 5 5 6 6 7 8 9 8 8 8 7 7 7 6 7 6 5 5 5 5
5 5 5 5 6 6 6 6 6 7 7 7 7 7 7 7 7 7 7 7 7 7 7 6 5 5 6 7 7 7 8 8 8 8 7 7 7 7 7 7 6 5 4 5 5
4 5 5 5 5 6 6 6 6 6 7 7 7 7 7 7 7 7 7 7 7 7 7 6 6 5 6 7 7 7 8 7 7 7 7 7 6 6 6 6 5 5 5 5 4
4 4 5 5 5 5 5 6 6 6 6 7 7 7 7 7 7 7 7 6 7 7 6 6 5 6 7 7 7 7 7 7 7 7 7 6 7 6 7 5 5 5 5 4 3
3 4 4 5 5 5 5 5 5 5 6 7 6 7 7 7 7 7 7 6 6 6 6 5 5 6 6 7 7 7 7 7 7 7 7 6 7 6 6 6 6 5 5 5 4
2 3 3 4 4 5 5 5 5 5 6 6 6 6 7 7 6 7 7 6 6 6 4 4 5 5 6 6 7 6 7 5 6 7 7 7 7 7 6 6 4 5 5 3 4
2 2 2 2 3 4 4 5 5 5 5 5 6 6 8 7 6 7 6 6 6 6 5 4 4 5 5 6 6 7 8 8 7 7 7 7 5 3 5 6 4 3 3 3 4
2 2 2 2 2 3 3 4 4 5 5 5 5 5 7 8 7 6 6 6 5 5 5 5 5 5 6 6 7 8 9 8 8 7 8 7 7 6 6 5 5 4 4 3 2
1 2 2 2 2 2 2 3 3 4 4 5 5 4 6 7 7 7 6 6 4 5 5 5 4 5 6 7 8 9 9 9 9 7 7 8 8 6 6 6 5 5 4 3 2
1 1 1 1 2 2 2 2 3 3 4 5 2 6 5 6 7 6 6 5 4 4 4 5 6 7 8 8 8 8 9 9 9 8 8 7 8 8 7 6 5 6 4 3 4
1 1 1 1 1 1 1 1 1 2 3 4 5 5 5 5 6 6 5 5 4 5 5 6 6 7 8 7 7 7 8 9 9 8 7 8 9 8 7 7 6 5 5 5 4
-1 0 1 1 0 1 1 1 1 1 2 5 5 5 6 4 6 4 5 4 5 5 6 7 8 7 7 7 7 7 8 8 8 8 8 9 9 8 7 7 6 6 5 6 6
-3 -2 -0 -0 -0 -0 0 0 1 1 1 3 5 6 6 5 5 6 4 5 6 6 7 7 7 7 7 7 7 8 8 7 7 8 6 8 9 9 9 8 7 7 6 5 6
-4 -3 -2 -2 -1 -1 -2 0 0 1 3 5 3 3 5 5 6 7 5 5 6 6 6 7 7 7 7 7 7 7 7 7 7 8 9 10 10 9 9 9 8 7 7 6 5
-4 -4 -3 -3 -2 -2 -1 -1 -1 -0 3 4 3 4 4 4 5 6 5 5 5 6 6 7 7 7 7 7 6 7 7 7 7 8 9 9 10 10 9 10 9 9 8 7 6
-4 -5 -4 -3 -2 -4 -2 -2 -2 1 4 5 3 2 2 3 4 5 5 5 5 6 6 6 7 6 6 7 6 6 7 9 8 9 10 9 9 10 10 9 8 8 8 7 7
-5 -5 -4 -4 -4 -4 -5 -4 -1 2 3 3 3 2 2 4 3 4 5 5 5 6 7 7 7 7 6 7 7 7 8 9 8 9 10 9 10 10 9 8 8 8 7 7 7
-6 -5 -5 -4 -4 -5 -5 -4 -1 2 4 3 3 3 2 3 4 5 5 6 6 6 7 8 8 8 7 7 7 8 8 8 8 8 8 9 10 9 9 8 8 8 7 7 7
-8 -7 -5 -5 -5 -6 -5 -4 -2 1 2 2 3 4 4 3 4 5 5 6 6 6 7 8 8 8 7 6 7 7 7 7 8 8 8 10 10 11 9 8 8 8 8 7 8
-8 -8 -6 -7 -8 -7 -6 -4 -4 -0 1 2 2 4 4 4 4 4 5 6 6 6 6 7 7 7 6 6 7 6 7 7 8 8 9 9 10 9 9 8 8 8 7 7 7
-8 -8 -8 -7 -8 -7 -7 -5 -4 -2 0 1 1 3 4 3 3 3 4 6 6 6 6 6 7 8 7 7 7 8 7 7 8 8 8 8 8 8 8 8 7 7 7 7 6
-8 -8 -8 -7 -7 -7 -4 -4 -5 -3 -1 0 1 1 2 2 3 4 4 5 5 6 6 6 6 7 7 7 6 7 7 8 8 8 8 7 7 8 8 7 7 7 7 7 6
-8 -8 -8 -7 -7 -5 -6 -6 -5 -4 -3 -0 0 1 1 1 2 3 4 4 4 5 6 5 6 6 7 7 7 6 7 7 7 7 7 7 8 8 8 8 7 7 7 7 6
-8 -8 -7 -8 -7 -7 -6 -5 -5 -4 -3 -3 -1 0 1 2 2 2 3 3 3 4 5 5 6 6 7 7 8 8 7 7 7 7 7 7 8 8 8 7 8 7 7 6 6
-8 -8 -9 -7 -6 -7 -6 -5 -4 -4 -3 -3 -2 0 1 1 2 2 1 2 3 3 4 4 5 6 6 7 7 7 7 7 8 8 7 7 7 8 8 7 7 6 6 6 6
-7 -8 -8 -7 -7 -8 -6 -6 -5 -4 -3 -2 -1 -1 0 1 0 0 2 1 2 2 3 4 4 6 6 6 7 7 7 7 7 7 7 7 7 7 7 7 6 6 5 5 5
Height
3146 3146 3147 3147 3147 3146 3146 3146 3146 3144 3144 3142 3141 3140 3139 3138 3136 3135 3133 3133 3132 3130 3131 3130 3130 3130 3130 3132 3131 3131 3129 3123 3122 3121 3123 3122 3119 3111 3113 3115 3114 3112 3111 3106 3107
3141 3141 3142 3142 3142 3142 3142 3143 3143 3142 3142 3139 3138 3137 3136 3135 3133 3132 3131 3130 3129 3129 3129 3129 3130 3130 3132 3133 3132 3131 3125 3124 3123 3122 3122 3121 3118 3110 3111 3115 3114 3110 3106 3104 3104
3135 3135 3135 3136 3137 3137 3137 3137 3137 3138 3138 3137 3135 3134 3133 3132 3132 3128 3128 3128 3128 3127 3127 3127 3129 3130 3131 3132 3131 3129 3126 3123 3123 3123 3122 3121 3119 3116 3116 3110 3102 3111 3105 3102 3100
3129 3130 3129 3130 3130 3132 3131 3132 3132 3133 3132 3133 3132 3132 3130 3130 3134 3126 3127 3126 3126 3126 3125 3126 3127 3129 3131 3130 3129 3128 3125 3123 3122 3121 3119 3119 3117 3117 3116 3113 3108 3107 3107 3103 3101
3124 3124 3124 3124 3124 3124 3125 3126 3126 3126 3127 3127 3128 3128 3128 3126 3126 3123 3123 3124 3124 3124 3123 3125 3127 3129 3129 3128 3127 3125 3123 3122 3119 3116 3117 3116 3116 3114 3114 3111 3108 3107 3105 3100 3099
3117 3117 3118 3118 3119 3119 3118 3120 3121 3121 3121 3121 3122 3122 3123 3122 3121 3120 3120 3120 3122 3122 3122 3123 3127 3128 3127 3127 3126 3124 3122 3119 3117 3116 3115 3114 3113 3112 3108 3108 3107 3106 3104 3101 3098
3110 3111 3111 3112 3112 3113 3114 3115 3115 3115 3114 3115 3116 3115 3117 3118 3116 3116 3117 3117 3119 3120 3122 3123 3124 3125 3126 3125 3124 3122 3119 3115 3112 3114 3114 3111 3110 3109 3105 3105 3106 3105 3104 3103 3098
3103 3103 3104 3106 3107 3107 3107 3109 3109 3109 3109 3110 3109 3109 3108 3112 3111 3112 3113 3114 3116 3117 3118 3121 3120 3122 3123 3123 3122 3120 3115 3112 3112 3112 3111 3110 3108 3095 3105 3103 3106 3106 3105 3105 3100
3096 3097 3098 3099 3100 3101 3103 3103 3103 3102 3103 3104 3105 3103 3102 3105 3106 3107 3109 3111 3114 3115 3116 3117 3119 3121 3123 3122 3119 3114 3111 3112 3109 3111 3110 3109 3106 3104 3105 3105 3106 3107 3105 3107 3102
3088 3090 3091 3093 3095 3096 3097 3099 3097 3097 3097 3099 3100 3102 3100 3100 3100 3102 3105 3108 3112 3113 3115 3116 3118 3119 3119 3118 3111 3111 3109 3109 3109 3109 3109 3108 3106 3106 3105 3106 3107 3108 3108 3108 3105
3079 3082 3084 3086 3089 3090 3093 3095 3095 3092 3090 3093 3095 3092 3094 3094 3097 3100 3101 3105 3109 3112 3113 3115 3117 3115 3112 3112 3111 3110 3108 3107 3107 3107 3108 3106 3104 3104 3104 3106 3104 3104 3104 3104 3105
3067 3071 3075 3079 3082 3085 3087 3089 3087 3088 3083 3084 3086 3086 3088 3089 3092 3095 3098 3101 3104 3107 3111 3115 3111 3111 3111 3111 3110 3111 3109 3107 3106 3105 3106 3103 3102 3103 3103 3102 3104 3104 3103 3103 3103
3056 3060 3065 3069 3075 3079 3081 3084 3083 3082 3077 3075 3078 3079 3084 3085 3085 3090 3093 3097 3101 3104 3106 3108 3109 3108 3109 3109 3110 3109 3107 3106 3105 3104 3104 3102 3101 3101 3101 3102 3104 3104 3104 3102 3103
3048 3051 3055 3061 3070 3070 3075 3078 3080 3081 3076 3070 3069 3068 3073 3078 3076 3083 3087 3095 3099 3099 3103 3104 3105 3106 3107 3107 3108 3105 3105 3105 3105 3102 3104 3101 3099 3096 3097 3099 3101 3102 3103 3103 3102
3041 3044 3046 3052 3055 3064 3068 3074 3077 3080 3078 3065 3062 3057 3063 3066 3075 3073 3083 3088 3092 3095 3100 3098 3100 3102 3103 3104 3105 3105 3103 3104 3103 3101 3098 3095 3094 3093 3094 3094 3095 3098 3100 3102 3102
3034 3037 3040 3043 3048 3057 3061 3069 3073 3080 3064 3060 3055 3054 3057 3060 3068 3071 3075 3083 3091 3093 3094 3095 3097 3099 3099 3100 3101 3102 3103 3103 3101 3099 3095 3092 3093 3088 3091 3092 3094 3095 3097 3100 3102
3024 3029 3032 3035 3042 3051 3056 3064 3068 3061 3054 3053 3053 3053 3052 3056 3061 3066 3067 3073 3077 3084 3085 3091 3091 3094 3096 3097 3098 3100 3100 3096 3097 3094 3091 3091 3094 3088 3090 3091 3093 3094 3095 3096 3098
3014 3019 3023 3028 3035 3041 3049 3054 3048 3037 3045 3046 3049 3051 3049 3054 3056 3060 3063 3068 3074 3079 3081 3084 3086 3088 3090 3093 3094 3095 3096 3094 3093 3090 3088 3089 3089 3085 3088 3090 3091 3091 3092 3092 3093
3004 3008 3013 3020 3028 3035 3040 3034 3022 3030 3038 3044 3047 3048 3047 3049 3055 3057 3058 3061 3065 3070 3074 3076 3080 3083 3086 3089 3091 3091 3092 3093 3092 3092 3091 3086 3084 3085 3086 3088 3088 3089 3089 3089 3088
2995 2999 3003 3012 3019 3027 3026 3017 3019 3028 3038 3040 3040 3044 3043 3044 3049 3050 3052 3055 3060 3066 3071 3073 3076 3079 3083 3086 3087 3087 3090 3092 3091 3089 3089 3080 3078 3079 3083 3086 3087 3088 3088 3086 3085
2988 2989 2992 3005 3012 3014 3010 3005 3017 3026 3032 3036 3039 3040 3041 3042 3043 3045 3047 3052 3055 3061 3067 3070 3072 3076 3078 3079 3080 3085 3085 3086 3085 3087 3083 3081 3079 3078 3083 3085 3086 3087 3087 3087 3086
2978 2977 2982 2996 3001 3002 3000 3000 3015 3021 3027 3030 3032 3034 3037 3040 3039 3042 3040 3047 3051 3056 3058 3064 3068 3068 3072 3075 3077 3077 3080 3082 3082 3082 3082 3083 3081 3080 3082 3083 3083 3084 3084 3085 3084
2964 2969 2979 2986 2980 2985 2986 2992 3007 3015 3019 3024 3027 3032 3034 3035 3037 3037 3039 3043 3047 3050 3053 3060 3061 3065 3067 3071 3071 3072 3074 3076 3077 3079 3077 3081 3081 3079 3079 3079 3080 3081 3081 3081 3081
2956 2959 2966 2967 2972 2973 2973 2981 2996 3005 3011 3019 3023 3027 3029 3030 3032 3032 3035 3038 3041 3046 3051 3055 3055 3056 3057 3060 3066 3069 3070 3072 3073 3073 3075 3074 3074 3074 3076 3075 3075 3076 3076 3077 3078
2938 2937 2943 2946 2949 2961 2976 2983 2986 2993 3002 3009 3014 3018 3024 3027 3028 3028 3034 3036 3037 3041 3045 3049 3049 3053 3055 3057 3058 3060 3063 3066 3067 3068 3068 3070 3069 3070 3071 3071 3071 3071 3071 3071 3073
2921 2928 2937 2946 2952 2957 2967 2972 2979 2989 2999 3000 3008 3015 3020 3023 3025 3024 3028 3034 3033 3036 3039 3043 3044 3049 3050 3053 3054 3055 3057 3059 3060 3062 3063 3064 3064 3066 3066 3066 3067 3067 3067 3066 3067
2909 2924 2933 2936 2944 2955 2948 2957 2967 2983 2989 2998 3008 3014 3015 3021 3020 3019 3023 3026 3026 3031 3034 3038 3041 3043 3043 3048 3050 3048 3051 3054 3056 3057 3058 3059 3061 3062 3062 3062 3062 3062 3061 3061 3060
Wind_Speed
24 24 23 22 21 20 20 21 20 19 19 18 18 19 18 15 16 16 12 8 5 5 5 4 3 2 2 6 7 6 11 13 7 6 2 6 10 16 4 10 15 10 7 18 14
28 28 26 25 25 24 23 24 24 23 23 21 20 19 18 16 16 15 12 6 6 6 5 3 3 3 5 4 4 6 15 7 4 6 8 9 12 14 8 10 10 16 17 14 13
30 30 29 28 28 28 27 26 26 26 26 25 23 20 17 16 15 11 7 6 7 7 6 4 7 8 7 7 6 6 12 12 9 9 8 10 10 8 9 16 2 8 18 16 13
31 31 31 30 30 30 29 29 28 28 27 27 25 23 19 14 4 12 9 9 8 7 7 5 6 9 7 10 7 10 10 11 12 12 10 8 9 7 10 10 13 12 14 17 13
31 32 32 32 32 31 32 30 29 29 28 27 27 26 21 17 16 15 14 12 10 9 7 7 8 8 10 9 10 11 9 10 9 9 13 11 8 9 8 6 9 13 14 14 9
32 31 31 32 33 33 31 32 31 30 29 27 29 26 26 20 18 15 15 13 11 10 8 10 6 11 10 11 10 8 9 9 7 5 8 10 12 10 10 10 11 10 10 7 10
32 31 31 31 32 32 32 33 30 32 30 29 28 28 27 18 18 17 14 14 13 11 9 10 10 7 6 9 12 11 14 14 9 5 5 11 15 16 11 6 5 8 7 4 14
35 33 32 31 31 31 30 30 31 31 31 29 27 30 29 19 19 15 15 16 15 14 15 13 13 9 11 10 11 12 16 17 8 5 7 9 7 8 4 1 4 4 3 3 6
37 36 35 32 31 31 30 28 30 30 29 29 29 28 27 22 20 17 18 18 16 15 16 13 12 9 10 10 14 16 15 13 6 6 7 8 8 8 2 3 5 5 6 7 4
39 38 36 35 33 31 29 27 28 29 28 28 29 25 21 16 12 20 18 22 19 17 16 16 12 11 12 14 20 6 14 7 11 7 7 9 10 4 3 4 5 7 9 9 8
43 40 38 36 34 32 28 26 27 26 29 27 15 20 20 16 17 15 20 24 20 18 17 14 14 16 12 15 16 12 10 12 8 4 8 8 10 1 3 7 8 6 11 11 8
45 44 40 38 35 33 29 25 28 27 33 30 27 32 25 22 18 21 22 27 26 23 18 17 19 13 12 9 12 11 12 12 9 7 7 9 6 4 7 4 10 11 8 9 11
39 44 44 40 36 33 30 26 27 27 33 34 31 31 26 26 24 21 26 28 26 24 22 22 12 14 11 10 10 11 13 11 9 11 12 10 7 9 10 11 10 12 12 7 8
32 36 43 42 34 35 30 28 23 23 20 24 28 31 33 32 36 25 26 29 24 27 24 22 18 12 15 14 12 15 12 12 12 14 1 11 4 15 12 11 14 14 15 16 10
33 31 34 41 40 33 28 24 20 13 7 5 17 21 22 37 18 34 29 31 31 25 27 25 21 19 18 16 13 15 8 10 11 13 15 8 11 11 13 12 14 17 17 18 18
36 34 31 35 41 32 28 22 15 8 14 10 12 15 24 29 23 11 34 32 28 24 24 24 17 18 18 14 16 13 10 9 10 13 11 13 9 14 13 5 5 7 15 20 20
38 36 33 31 38 29 26 21 15 21 13 22 11 14 18 21 31 23 38 39 36 34 33 26 22 18 15 10 12 13 12 10 7 8 9 4 6 15 6 5 5 8 9 15 22
41 38 36 33 27 34 28 28 22 30 37 8 10 14 17 17 28 28 34 39 36 33 26 29 31 26 18 19 14 18 17 9 7 7 9 7 8 4 6 5 6 7 9 12 15
38 39 38 36 27 38 35 33 50 41 15 38 9 14 15 19 17 29 35 40 40 38 27 30 30 25 22 19 17 16 23 17 10 6 6 10 11 12 7 6 6 4 4 8 11
36 34 41 35 29 40 39 44 41 34 33 21 31 16 15 18 22 32 33 37 39 40 31 13 25 18 24 19 19 15 16 14 15 9 9 17 12 9 4 3 5 2 1 2 5
34 36 40 31 27 41 53 55 48 30 27 28 23 28 17 16 26 23 22 22 37 38 34 26 20 22 19 26 23 20 17 17 15 20 7 8 8 2 2 5 6 6 4 2 1
41 44 37 35 38 43 61 60 43 41 27 29 22 20 25 18 20 26 28 30 19 36 41 34 19 22 24 22 22 21 21 23 19 18 16 17 19 13 12 14 12 11 10 8 6
48 47 37 40 48 50 54 64 43 37 40 31 29 24 19 14 13 21 24 26 20 34 37 34 31 22 21 19 18 24 22 22 24 21 20 14 15 12 11 10 10 13 11 11 10
52 43 44 47 48 48 51 55 50 43 37 38 33 25 25 22 17 11 18 27 24 19 34 36 28 33 27 26 22 24 25 25 24 22 22 25 23 18 17 17 16 15 14 12 11
62 48 51 55 58 51 41 39 53 52 46 30 39 28 27 19 19 17 19 19 26 29 28 31 38 28 29 24 17 20 23 26 27 27 29 25 24 20 15 14 15 15 16 18 15
69 52 45 34 54 50 45 44 48 50 49 47 36 38 26 24 15 18 13 14 15 23 34 29 30 32 31 25 25 23 21 22 23 24 26 26 26 20 19 17 18 17 16 20 24
68 67 38 50 33 45 53 47 52 44 48 46 42 33 35 26 12 16 20 20 13 10 21 25 31 29 30 27 27 31 28 25 23 24 23 25 21 18 18 18 19 19 22 23 26
Wind_Direction
266 269 272 275 272 272 273 274 275 275 278 284 290 296 301 305 307 311 304 296 291 287 290 298 283 225 186 244 259 274 257 275 298 268 303 306 283 259 280 308 304 283 277 249 264
268 267 266 267 270 272 272 276 278 281 283 286 289 292 298 302 305 304 294 270 266 272 281 291 264 228 222 254 267 255 273 326 309 299 291 297 296 314 345 297 306 305 300 289 271
267 267 267 267 268 269 271 273 277 280 284 286 287 288 293 300 315 292 280 264 254 269 264 230 223 228 231 242 267 286 274 291 294 276 276 284 292 285 306 293 189 292 295 311 276
270 269 267 266 266 267 268 271 273 278 280 284 285 285 287 292 293 276 279 271 252 256 246 216 214 225 241 249 266 276 277 288 280 265 260 280 270 285 304 296 300 287 310 309 290
272 273 272 269 267 266 268 267 269 271 275 279 281 282 281 280 279 280 272 256 242 241 227 203 214 230 249 255 264 267 287 281 285 256 251 260 263 263 278 307 286 307 326 320 294
269 270 271 272 272 271 267 267 268 268 270 272 277 278 279 274 272 273 263 241 230 231 222 206 203 239 247 250 258 277 268 258 258 243 249 256 263 255 237 295 286 306 331 6 345
268 270 271 272 271 271 272 271 269 269 266 267 269 273 271 278 269 264 254 226 222 222 207 213 226 229 265 264 259 264 266 257 248 234 250 282 264 247 220 275 263 276 307 346 354
264 266 268 271 272 273 271 271 272 270 269 265 264 268 270 270 259 253 238 221 216 219 203 214 218 230 248 257 270 264 257 281 299 213 268 300 310 231 190 169 186 224 175 164 355
263 265 265 266 269 271 273 272 271 271 271 268 265 262 274 266 251 243 232 216 212 218 218 222 224 234 251 258 257 239 260 256 259 236 283 290 303 319 180 182 188 199 176 160 179
259 261 263 264 267 270 273 275 275 274 269 269 263 265 261 259 254 231 222 203 207 216 219 222 231 239 247 242 252 262 253 273 271 287 258 273 284 273 213 200 205 191 202 191 172
256 256 259 261 262 266 270 277 282 283 265 262 257 250 242 242 247 227 212 201 196 212 213 226 223 231 245 246 250 280 279 273 265 251 271 272 287 228 179 182 193 208 198 203 206
252 250 252 255 257 261 264 268 269 275 275 268 257 251 239 230 229 219 202 200 201 208 211 217 229 231 245 243 236 241 254 266 275 252 240 275 267 208 194 181 189 200 216 213 184
256 247 245 247 251 255 258 261 272 277 285 269 264 253 240 228 220 213 207 200 207 207 212 218 236 222 225 228 232 238 252 270 271 263 263 262 239 214 197 199 199 209 200 227 224
266 254 241 240 243 247 252 255 267 280 294 273 269 253 237 226 230 205 217 203 208 213 213 226 224 230 224 231 237 257 245 251 263 269 315 254 231 241 192 214 213 210 211 205 216
265 265 252 235 235 234 240 246 257 273 280 263 220 228 227 213 233 221 208 197 210 212 210 224 222 225 225 234 241 250 244 244 251 268 281 255 253 195 209 211 217 214 211 213 208
259 260 259 244 230 227 227 234 231 216 239 244 232 226 218 213 208 212 199 200 208 216 219 222 226 225 230 239 241 223 234 245 249 244 248 225 266 184 192 246 165 206 221 218 217
255 254 254 253 231 213 215 199 204 224 230 237 234 224 208 210 199 204 192 195 200 203 213 215 217 216 212 212 196 203 213 226 213 205 249 150 246 251 269 239 230 233 225 223 222
252 248 248 245 233 204 189 196 214 230 216 203 208 217 207 205 203 199 196 204 205 206 209 209 213 210 214 205 206 210 214 216 225 228 240 169 248 245 208 246 261 252 243 237 232
247 243 242 241 229 201 190 209 217 214 215 222 242 220 211 206 210 204 207 209 206 202 208 207 219 215 216 214 215 216 221 240 264 264 298 275 247 261 243 260 255 240 252 248 254
235 239 238 233 225 199 211 225 223 221 221 217 221 222 219 207 207 204 209 214 211 209 208 218 213 205 204 207 215 228 226 217 228 253 237 252 231 267 197 239 207 221 261 325 265
219 230 232 215 207 204 215 221 223 218 211 221 225 226 227 216 212 211 214 218 211 210 209 210 212 198 200 212 211 212 223 221 235 234 250 263 279 136 221 234 241 256 269 283 13
212 219 229 206 198 213 212 218 213 222 219 219 229 229 228 227 221 215 215 218 216 208 208 206 211 216 217 222 218 217 217 223 235 241 234 255 272 297 282 254 267 245 262 263 259
211 214 219 208 206 211 220 222 217 222 221 220 225 228 228 221 228 220 220 206 233 207 209 204 216 219 219 204 213 225 226 228 231 241 253 226 250 279 278 246 242 261 260 260 255
204 205 211 213 220 219 220 218 218 218 225 221 223 224 227 230 228 229 222 220 211 224 213 207 211 214 217 214 215 222 227 229 234 235 244 252 267 269 264 263 269 258 254 252 258
203 208 209 207 213 215 223 222 215 214 219 223 226 215 223 229 224 224 229 213 230 219 212 212 217 216 226 227 226 221 224 229 233 239 244 254 258 268 268 276 272 273 247 241 252
207 205 209 218 214 212 213 219 221 217 214 221 224 220 225 230 234 200 205 218 213 221 218 205 217 221 232 227 232 235 234 234 239 241 248 253 257 258 272 279 271 262 260 258 249
211 209 213 212 210 209 214 216 215 217 218 218 221 225 223 219 202 208 220 196 194 214 216 209 213 217 230 231 235 239 234 240 243 244 246 250 258 265 269 270 273 270 255 260 261